• In Czech Republic
  • List of Countries
  • For 7 days
  • Water Temperature
  • Satellite Maps
  • Weather Map
  • Weather Widgets
  • user-avatar
    Login

    Hourly Weather Astana

    Today, 19 June, Tuesday

    Time Temperature Precipitation Wind Pressure Humidity
    00:00 +16°C° 0.1 mm 3 mps 718 mmHg 73%
    01:00 +14°C° 0.1 mm 4 mps 718 mmHg 72%
    02:00 +14°C° 0.1 mm 5 mps 718 mmHg 71%
    03:00 +13°C° 0 mm 5 mps 718 mmHg 73%
    04:00 +12°C° 0 mm 4 mps 719 mmHg 76%
    05:00 +12°C° 0 mm 4 mps 719 mmHg 79%
    06:00 +13°C° 0 mm 5 mps 719 mmHg 76%
    07:00 +15°C° 0 mm 5 mps 720 mmHg 72%
    08:00 +16°C° 0 mm 5 mps 720 mmHg 68%
    09:00 +17°C° 0.1 mm 5 mps 720 mmHg 65%
    10:00 +19°C° 0.1 mm 5 mps 721 mmHg 63%
    11:00 +19°C° 0.1 mm 5 mps 721 mmHg 60%
    12:00 +20°C° 0.3 mm 5 mps 721 mmHg 58%
    13:00 +21°C° 0.3 mm 5 mps 721 mmHg 55%
    14:00 +21°C° 0.3 mm 6 mps 721 mmHg 52%
    15:00 +21°C° 0.2 mm 5 mps 721 mmHg 51%
    16:00 +21°C° 0.2 mm 5 mps 722 mmHg 50%
    17:00 +21°C° 0.2 mm 5 mps 722 mmHg 49%
    18:00 +21°C° 0 mm 4 mps 722 mmHg 52%
    19:00 +20°C° 0 mm 3 mps 722 mmHg 55%
    20:00 +19°C° 0 mm 2 mps 722 mmHg 58%
    21:00 +18°C° 0 mm 3 mps 722 mmHg 59%
    22:00 +18°C° 0 mm 3 mps 722 mmHg 61%
    23:00 +17°C° 0 mm 3 mps 722 mmHg 63%

    Tomorrow, 20 June, Wednesday

    Time Temperature Precipitation Wind Pressure Humidity
    00:00 +16°C° 0 mm 3 mps 722 mmHg 66%
    01:00 +16°C° 0 mm 3 mps 722 mmHg 69%
    02:00 +14°C° 0 mm 3 mps 722 mmHg 73%
    03:00 +14°C° 0 mm 3 mps 723 mmHg 73%
    04:00 +14°C° 0 mm 3 mps 723 mmHg 73%
    05:00 +14°C° 0 mm 3 mps 723 mmHg 74%
    06:00 +17°C° 0 mm 4 mps 723 mmHg 68%
    07:00 +19°C° 0 mm 5 mps 724 mmHg 61%
    08:00 +20°C° 0 mm 5 mps 724 mmHg 55%
    09:00 +21°C° 0 mm 6 mps 724 mmHg 51%
    10:00 +22°C° 0 mm 6 mps 724 mmHg 48%
    11:00 +23°C° 0 mm 6 mps 724 mmHg 44%
    12:00 +24°C° 0 mm 6 mps 724 mmHg 44%
    13:00 +24°C° 0 mm 6 mps 724 mmHg 43%
    14:00 +26°C° 0 mm 6 mps 724 mmHg 42%
    15:00 +26°C° 0 mm 6 mps 724 mmHg 43%
    16:00 +26°C° 0 mm 6 mps 724 mmHg 44%
    17:00 +24°C° 0 mm 6 mps 724 mmHg 45%
    18:00 +23°C° 0.1 mm 5 mps 724 mmHg 49%
    19:00 +22°C° 0.1 mm 4 mps 724 mmHg 53%
    20:00 +21°C° 0.1 mm 4 mps 724 mmHg 56%
    21:00 +21°C° 0.7 mm 3 mps 724 mmHg 61%
    22:00 +20°C° 0.7 mm 3 mps 724 mmHg 65%
    23:00 +19°C° 0.7 mm 3 mps 724 mmHg 69%

    Day after tomorrow, 21 June, Thursday

    Time Temperature Precipitation Wind Pressure Humidity
    00:00 +18°C° 0.3 mm 3 mps 724 mmHg 70%
    01:00 +18°C° 0.3 mm 3 mps 724 mmHg 72%
    02:00 +18°C° 0.3 mm 3 mps 724 mmHg 73%
    03:00 +18°C° 0 mm 3 mps 724 mmHg 74%
    04:00 +18°C° 0 mm 3 mps 724 mmHg 74%
    05:00 +17°C° 0 mm 3 mps 724 mmHg 75%
    06:00 +19°C° 0 mm 4 mps 724 mmHg 66%
    07:00 +21°C° 0 mm 4 mps 724 mmHg 58%
    08:00 +23°C° 0 mm 5 mps 724 mmHg 50%
    09:00 +26°C° 0 mm 6 mps 724 mmHg 46%
    10:00 +27°C° 0 mm 7 mps 724 mmHg 41%
    11:00 +28°C° 0 mm 8 mps 724 mmHg 37%
    12:00 +28°C° 0 mm 8 mps 723 mmHg 37%
    13:00 +29°C° 0 mm 8 mps 723 mmHg 37%
    14:00 +29°C° 0 mm 8 mps 723 mmHg 37%
    15:00 +29°C° 0 mm 8 mps 722 mmHg 37%
    16:00 +29°C° 0 mm 8 mps 722 mmHg 38%
    17:00 +29°C° 0 mm 7 mps 722 mmHg 38%
    18:00 +27°C° 0 mm 6 mps 722 mmHg 45%
    19:00 +26°C° 0 mm 4 mps 722 mmHg 51%
    20:00 +24°C° 0 mm 3 mps 722 mmHg 57%
    21:00 +22°C° 0.5 mm 3 mps 722 mmHg 64%
    22:00 +20°C° 0.5 mm 2 mps 722 mmHg 72%
    23:00 +19°C° 0.5 mm 2 mps 722 mmHg 79%

    22 June, Friday

    Time Temperature Precipitation Wind Pressure Humidity
    00:00 +18°C° 0.6 mm 2 mps 721 mmHg 83%
    01:00 +18°C° 0.6 mm 2 mps 721 mmHg 86%
    02:00 +17°C° 0.6 mm 2 mps 721 mmHg 90%
    03:00 +17°C° 0.1 mm 2 mps 721 mmHg 90%
    04:00 +17°C° 0.1 mm 2 mps 721 mmHg 89%
    05:00 +17°C° 0.1 mm 3 mps 720 mmHg 89%
    06:00 +18°C° 0 mm 4 mps 721 mmHg 76%
    07:00 +20°C° 0 mm 6 mps 721 mmHg 63%
    08:00 +21°C° 0 mm 7 mps 721 mmHg 51%
    09:00 +21°C° 0 mm 7 mps 721 mmHg 48%
    10:00 +22°C° 0 mm 7 mps 721 mmHg 45%
    11:00 +22°C° 0 mm 8 mps 721 mmHg 41%
    12:00 +23°C° 0 mm 8 mps 721 mmHg 40%
    13:00 +23°C° 0 mm 8 mps 722 mmHg 38%
    14:00 +24°C° 0 mm 8 mps 722 mmHg 37%
    15:00 +23°C° 0 mm 7 mps 722 mmHg 39%
    16:00 +23°C° 0 mm 7 mps 722 mmHg 41%
    17:00 +22°C° 0 mm 6 mps 722 mmHg 44%
    18:00 +21°C° 0 mm 5 mps 722 mmHg 49%
    19:00 +20°C° 0 mm 4 mps 722 mmHg 55%
    20:00 +19°C° 0 mm 3 mps 723 mmHg 61%
    21:00 +18°C° 0 mm 3 mps 723 mmHg 63%
    22:00 +17°C° 0 mm 3 mps 723 mmHg 65%
    23:00 +16°C° 0 mm 2 mps 723 mmHg 68%

    23 June, Saturday

    Time Temperature Precipitation Wind Pressure Humidity
    00:00 +15°C° 0 mm 2 mps 723 mmHg 70%
    01:00 +15°C° 0 mm 2 mps 723 mmHg 72%
    02:00 +14°C° 0 mm 2 mps 723 mmHg 73%
    03:00 +14°C° 0 mm 2 mps 723 mmHg 75%
    04:00 +14°C° 0 mm 2 mps 723 mmHg 76%
    05:00 +14°C° 0 mm 2 mps 723 mmHg 78%
    06:00 +16°C° 0 mm 3 mps 724 mmHg 72%
    07:00 +18°C° 0 mm 3 mps 724 mmHg 66%
    08:00 +19°C° 0 mm 3 mps 724 mmHg 61%
    09:00 +20°C° 0 mm 4 mps 724 mmHg 57%
    10:00 +21°C° 0 mm 4 mps 724 mmHg 53%
    11:00 +22°C° 0 mm 4 mps 724 mmHg 50%
    12:00 +23°C° 0.4 mm 5 mps 724 mmHg 49%
    13:00 +23°C° 0.4 mm 5 mps 724 mmHg 49%
    14:00 +23°C° 0.4 mm 5 mps 724 mmHg 48%
    15:00 +23°C° 0.5 mm 5 mps 724 mmHg 49%
    16:00 +23°C° 0.5 mm 4 mps 724 mmHg 50%
    17:00 +23°C° 0.5 mm 4 mps 724 mmHg 50%
    18:00 +22°C° 0.1 mm 4 mps 724 mmHg 55%
    19:00 +21°C° 0.1 mm 3 mps 724 mmHg 61%
    20:00 +20°C° 0.1 mm 3 mps 724 mmHg 66%
    21:00 +19°C° 0.2 mm 3 mps 724 mmHg 69%
    22:00 +18°C° 0.2 mm 3 mps 724 mmHg 73%
    23:00 +17°C° 0.2 mm 3 mps 724 mmHg 77%

    24 June, Sunday

    Time Temperature Precipitation Wind Pressure Humidity
    00:00 +16°C° 0 mm 3 mps 724 mmHg 80%
    01:00 +16°C° 0 mm 3 mps 724 mmHg 84%
    02:00 +14°C° 0 mm 3 mps 725 mmHg 87%
    03:00 +14°C° 0 mm 3 mps 725 mmHg 89%
    04:00 +14°C° 0 mm 3 mps 725 mmHg 90%
    05:00 +14°C° 0 mm 3 mps 725 mmHg 92%
    06:00 +17°C° 0 mm 3 mps 726 mmHg 84%
    07:00 +18°C° 0 mm 3 mps 726 mmHg 77%
    08:00 +20°C° 0 mm 4 mps 727 mmHg 69%
    09:00 +21°C° 0 mm 4 mps 727 mmHg 63%
    10:00 +22°C° 0 mm 4 mps 727 mmHg 58%
    11:00 +23°C° 0 mm 5 mps 727 mmHg 52%
    12:00 +25°C° 0.1 mm 5 mps 727 mmHg 50%
    13:00 +25°C° 0.1 mm 5 mps 727 mmHg 49%
    14:00 +26°C° 0.1 mm 5 mps 726 mmHg 47%
    15:00 +26°C° 0 mm 5 mps 726 mmHg 48%
    16:00 +25°C° 0 mm 5 mps 726 mmHg 49%
    17:00 +25°C° 0 mm 5 mps 726 mmHg 49%
    18:00 +23°C° 0 mm 4 mps 727 mmHg 53%
    19:00 +22°C° 0 mm 3 mps 727 mmHg 56%
    20:00 +22°C° 0 mm 3 mps 727 mmHg 59%
    21:00 +21°C° 0 mm 3 mps 727 mmHg 60%
    22:00 +20°C° 0 mm 3 mps 727 mmHg 62%
    23:00 +20°C° 0 mm 3 mps 727 mmHg 63%
    Show more